Regional Weather Roundup
Issued by NWS

Home | Current Version | Previous Version | Text Only | Print | Product List | Glossary Off
Versions: 1 2 3 4 5 6 7 8 9 10 11 12 13 14 15 16 17 18 19 20 21 22 23 24 25 26 27 28 29 30 31 32 33 34 35 36 37 38 39 40 41 42 43 44 45 46 47 48 49 50

000
ASUS43 KFSD 020302
RWRSD

WEATHER ROUNDUP FOR SOUTH DAKOTA
NATIONAL WEATHER SERVICE SIOUX FALLS SD
1000 PM CDT TUE SEP 01 2015

NOTE: "FAIR" INDICATES FEW OR NO CLOUDS BELOW 12,000 FEET WITH NO
SIGNIFICANT WEATHER AND/OR OBSTRUCTIONS TO VISIBILITY.


SDZ001>005-009-010-012>017-020400-
NORTHWEST AND NORTH CENTRAL SOUTH DAKOTA

CITY           SKY/WX    TMP DP  RH WIND       PRES   REMARKS
BUFFALO          N/A     76  54  46 E10       29.79R
FAITH            N/A     78  53  41 CALM      29.82S
MOBRIDGE       CLEAR     73  64  73 SE9       29.78R
$$

SDZ012>016-024>037-041>051-057-063-072>074-020400-
SOUTHWEST AND SOUTH CENTRAL SOUTH DAKOTA

CITY           SKY/WX    TMP DP  RH WIND       PRES   REMARKS
RAPID CTY ARPT CLEAR     62  56  80 CALM      29.87R
PIERRE         CLEAR     75  66  73 SE12      29.79R
CUSTER         CLEAR     67  48  50 NE5       30.04R
ELLSWORTH AFB  CLEAR     71  57  60 W5        29.87R
PHILIP         CLEAR     70  62  76 N5        29.80R
PINE RIDGE     CLEAR     66  46  48 E6        29.88R
WINNER         FAIR      75  67  76 SE12      29.82R
$$

SDZ004>011-016>023-039-040-020400-
NORTHEAST SOUTH DAKOTA

CITY           SKY/WX    TMP DP  RH WIND       PRES   REMARKS
ABERDEEN       CLEAR     69  64  84 SE6       29.83S
WATERTOWN      CLEAR     71  61  70 SE8       29.87S
BROOKINGS      PTCLDY   N/A N/A N/A E13       29.89S
$$

SDZ017-020-022-023-036>040-048>070-020400-
SOUTHEAST SOUTH DAKOTA

CITY           SKY/WX    TMP DP  RH WIND       PRES   REMARKS
SIOUX FALLS    MOCLDY    74  71  91 CALM      29.86F
HURON          CLEAR     71  69  93 SE8       29.83R
CHAMBERLAIN    CLEAR     72  70  94 E8        29.82S
MITCHELL       CLEAR     71  69  93 SE6       29.84S
YANKTON        CLEAR     77  72  83 S8        29.84R
$$

ABBREVIATIONS USED IN REMARKS
   TC - TEMPERATURE IN CELSIUS
  WCI - WIND CHILL INDEX
   HX - HEAT INDEX
  VSB - VISIBILITY



USA.gov is the U.S. government's official web portal to all federal, state and local government web resources and services.